GFSFLT2_sfc_wetblb_078.txt.gz
Wetbulb
41.51 40.11 40.77 41.42 42.46 43.30 43.33 40.16 40.89 44.90 46.62 46.97 48.23 48.66 49.17 49.47 50.41 51.55 53.02 54.25 54.79 55.10 55.16 54.92 54.29 52.79 51.78
40.07 38.61 38.34 40.37 41.16 40.79 41.68 41.52 38.83 41.10 43.19 44.52 45.69 46.64 47.33 46.96 47.83 48.46 48.75 49.20 49.68 50.21 50.68 51.03 51.12 51.44 51.99
38.32 39.83 39.55 38.56 35.03 36.52 37.13 36.86 38.25 40.70 40.23 40.59 41.44 43.08 44.13 44.16 44.52 44.98 45.37 46.44 47.18 47.42 47.36 47.55 47.82 47.91 48.41
37.97 37.17 36.94 35.32 33.81 30.92 30.83 32.54 32.42 35.46 37.07 37.62 38.75 39.32 39.86 40.20 39.91 39.90 40.84 42.40 43.80 44.97 44.64 43.84 43.67 43.95 44.35
30.60 31.08 28.75 28.16 27.19 28.44 26.93 27.41 29.06 29.33 28.15 28.99 29.92 30.01 32.24 36.90 36.62 37.53 38.12 38.80 39.67 40.79 41.86 42.47 42.62 42.47 42.52
23.57 25.03 25.25 25.32 26.75 26.57 23.79 24.92 22.29 27.52 25.29 25.53 27.53 26.54 27.89 28.78 36.16 36.49 36.86 37.14 37.58 38.33 39.13 40.08 41.02 41.61 41.72
25.68 25.08 25.20 26.97 26.27 25.63 25.31 24.15 23.31 26.26 25.48 23.44 26.39 26.42 28.32 32.08 35.80 36.05 35.76 36.76 37.09 37.54 38.07 38.41 38.76 39.31 40.11
27.64 27.06 27.77 28.27 27.56 27.50 25.42 25.59 26.65 26.53 26.13 20.03 26.03 26.08 27.64 28.40 35.24 35.58 37.15 36.75 37.29 37.38 38.08 38.70 39.13 39.54 39.92
31.99 31.66 31.49 31.64 31.10 26.86 23.60 22.20 21.74 23.98 25.93 24.29 24.57 23.71 26.37 27.38 28.78 35.37 35.91 35.50 35.78 36.54 37.28 38.18 38.60 38.72 38.41
25.37 27.84 28.61 28.12 31.26 25.95 23.76 15.73 18.36 20.07 25.08 19.98 21.74 22.32 18.05 25.91 26.73 27.89 28.39 34.44 35.62 35.90 35.80 36.27 37.22 32.67 33.36
23.55 23.35 24.40 25.32 26.06 26.61 26.83 19.30 19.59 22.31 29.00 21.68 13.92 19.95 25.62 24.00 22.80 24.52 25.12 27.82 28.33 29.54 33.96 34.72 35.72 35.59 32.76
23.68 23.15 23.30 23.32 23.62 24.80 26.67 25.29 24.89 27.45 29.00 28.71 23.31 20.59 19.32 16.91 19.20 22.85 21.79 25.62 22.30 24.47 29.33 32.36 33.46 34.46 35.87
22.98 22.40 22.46 21.61 20.79 21.06 23.57 29.18 28.50 29.07 29.76 28.37 26.64 25.69 25.00 23.56 22.82 24.07 25.11 22.23 26.05 20.13 22.89 27.66 27.70 27.39 25.59
22.89 23.18 22.08 19.05 19.25 18.79 15.22 16.80 19.98 24.08 25.07 29.23 26.88 16.29 14.18 24.11 23.96 23.22 24.92 21.18 19.13 20.85 24.58 25.84 28.07 30.50 29.64
21.56 21.45 23.61 22.19 21.39 17.21 14.92 12.33 12.49 12.07 14.61 19.53 25.13 22.04 23.83 22.49 22.37 22.43 21.42 21.19 22.55 23.43 24.96 27.70 29.52 29.95 29.72
21.10 20.38 18.95 17.10 16.17 15.91 13.97 11.68 10.82 12.76 12.90 13.85 14.04 14.52 16.67 20.98 27.28 21.62 19.07 20.21 20.69 22.69 28.49 26.46 26.07 27.37 27.68
17.22 16.08 15.64 14.48 20.38 13.49 12.61 13.17 13.18 12.12 12.24 11.99 10.70 15.22 19.73 17.47 20.60 28.88 21.26 14.53 17.51 21.00 22.51 23.41 23.00 24.95 26.80

GFSFLT2_sfc_wetblb_084.txt.gz
Wetbulb
41.19 41.08 39.89 40.16 40.03 42.34 39.97 38.63 37.63 44.63 45.42 46.11 47.36 48.33 48.10 47.35 47.84 49.03 50.39 52.09 53.77 56.03 59.41 59.78 59.04 57.47 56.36
39.84 38.46 39.09 39.99 39.83 36.48 38.46 37.97 34.96 40.88 42.06 42.67 43.88 44.58 45.25 45.43 45.41 46.01 47.24 48.42 49.37 50.97 52.98 54.04 54.66 54.88 54.57
38.01 39.68 39.33 37.10 34.33 33.37 32.99 32.01 34.48 37.46 39.43 40.27 41.20 41.53 42.07 42.55 42.48 42.79 43.67 45.58 47.46 47.45 47.67 48.53 49.57 50.55 51.33
38.11 37.32 36.78 33.39 30.41 28.91 28.46 28.91 28.00 31.47 33.42 35.36 37.20 39.01 40.31 39.31 39.02 39.03 40.07 41.80 43.58 45.01 45.24 45.25 45.76 46.50 47.18
30.44 31.10 28.46 27.67 26.97 27.12 26.03 25.73 26.47 26.04 25.63 26.29 26.18 26.36 29.13 32.97 36.20 38.04 38.32 39.09 39.98 41.22 42.43 43.65 43.84 43.95 44.11
24.77 27.64 25.38 26.16 26.44 26.38 24.24 24.17 22.75 26.40 24.16 24.54 25.80 26.16 27.48 29.39 37.56 38.25 37.30 38.10 38.21 38.46 39.30 39.85 40.32 41.24 41.94
26.89 25.78 25.76 26.98 26.53 25.49 24.63 23.66 22.79 25.49 24.32 22.09 25.81 25.68 26.92 29.88 36.77 37.57 37.80 37.98 37.81 37.94 38.16 38.29 38.34 38.53 39.02
28.69 28.13 28.10 28.03 28.15 27.38 25.52 25.06 25.51 26.02 24.89 19.44 24.12 25.01 25.86 26.97 35.88 36.90 36.85 36.80 37.23 38.21 38.66 38.86 38.89 38.66 38.74
32.78 33.17 33.69 33.48 30.31 26.96 24.74 22.19 22.30 23.97 25.42 23.84 22.87 22.19 24.13 25.83 27.53 34.06 35.09 36.49 36.51 37.10 36.81 36.78 37.68 38.15 34.26
26.39 28.22 27.75 29.55 32.06 26.40 24.95 16.70 18.86 20.97 25.18 19.68 20.18 19.82 16.87 23.63 24.76 25.53 26.40 32.80 33.07 34.07 34.86 35.48 36.08 30.67 30.05
23.78 23.13 24.38 25.72 26.42 26.84 26.15 19.76 15.52 16.58 29.14 19.98 9.49 15.75 13.75 17.38 22.08 23.14 23.31 24.59 25.14 26.96 31.06 32.71 34.43 33.71 28.48
23.65 23.43 23.79 24.57 25.50 26.41 26.99 26.41 25.22 22.21 24.73 20.10 14.13 14.85 20.94 17.95 15.93 21.48 19.96 20.61 20.40 23.00 22.05 28.61 31.76 32.84 33.29
23.54 23.59 23.77 24.12 24.46 24.82 26.10 25.42 19.37 23.18 27.02 27.31 26.06 25.06 23.93 22.20 19.58 20.79 19.75 20.29 22.26 15.63 18.92 21.15 21.26 22.64 21.31
23.80 24.93 25.03 23.77 25.93 25.16 22.64 16.89 14.64 18.67 21.74 15.39 16.53 23.28 16.84 16.47 14.86 19.55 15.76 15.75 15.43 16.71 20.38 21.77 23.17 24.60 24.43
24.89 24.98 26.52 27.04 26.01 22.53 19.89 11.71 13.06 10.45 14.22 19.25 22.78 21.16 19.48 16.36 17.43 19.49 20.06 16.93 17.88 18.41 17.79 16.91 21.40 23.61 25.27
25.31 25.18 25.21 24.47 21.96 17.24 14.67 13.43 15.18 14.34 10.46 11.27 12.21 15.77 18.18 21.89 25.32 22.38 21.00 15.61 15.59 17.22 18.43 16.54 19.52 21.75 25.33
24.15 23.84 22.62 21.27 23.90 18.71 14.43 16.29 14.98 13.15 12.10 9.32 7.92 9.62 10.49 16.24 20.86 29.12 18.13 11.78 13.94 16.88 19.45 18.84 19.61 22.53 24.28

GFSFLT2_sfc_wetblb_087.txt.gz
Wetbulb
41.08 41.30 40.20 40.80 41.59 41.58 39.51 37.04 37.09 44.40 44.92 45.23 46.39 46.67 47.19 46.72 46.58 47.84 50.01 51.09 53.16 55.16 59.38 60.05 60.43 59.45 59.26
39.59 38.48 39.19 40.18 39.87 37.42 38.05 35.90 33.86 41.22 42.42 42.91 43.38 43.94 44.15 44.29 44.40 45.21 46.57 48.61 48.90 50.38 52.82 55.39 57.58 57.35 57.04
38.21 39.74 39.25 37.41 35.15 33.71 31.41 31.18 33.26 36.35 39.05 40.18 40.77 41.77 41.90 41.06 40.95 41.65 43.17 45.05 46.74 47.04 48.10 49.84 51.65 52.93 54.35
38.30 37.44 36.89 34.25 30.61 30.40 29.15 28.48 27.92 30.65 32.58 34.87 36.12 38.93 38.74 39.03 39.26 39.22 39.99 41.74 43.59 45.31 45.72 45.75 46.47 47.75 48.82
35.37 33.47 30.44 29.07 28.17 27.64 26.83 26.00 26.40 26.24 25.68 26.77 26.37 27.35 30.10 33.34 36.40 38.75 38.77 39.68 40.65 41.99 43.07 43.88 44.39 44.93 45.30
27.59 30.63 26.72 26.73 26.98 26.82 25.76 24.42 23.78 26.34 24.64 25.05 26.54 26.46 27.49 29.57 38.09 38.83 37.85 38.61 39.07 39.29 40.02 40.56 40.95 41.57 42.26
27.85 26.45 26.26 27.60 27.11 26.33 25.48 24.25 23.26 25.83 24.73 22.65 26.01 25.98 26.95 29.17 37.21 37.60 38.24 38.73 39.09 38.77 38.97 39.21 39.06 39.17 39.42
28.81 28.13 28.93 28.63 28.81 28.10 25.75 25.41 25.82 26.37 25.30 20.77 24.42 24.87 25.76 27.16 36.68 36.76 37.14 37.08 37.59 37.82 38.66 39.07 39.52 39.30 39.67
34.02 34.71 34.57 33.71 30.95 27.74 25.82 23.68 23.32 24.20 25.64 24.38 23.38 22.90 24.43 26.12 26.91 34.14 35.87 36.46 36.56 37.00 37.24 37.66 37.93 37.23 33.92
27.74 28.59 29.04 30.96 32.80 26.78 25.79 18.31 18.74 20.98 25.40 20.58 21.45 21.52 18.62 24.34 24.82 25.50 25.47 32.07 32.36 33.71 34.83 35.42 35.52 30.03 29.02
24.30 24.54 25.55 26.71 26.78 26.97 26.22 20.68 16.74 17.89 27.98 20.76 12.54 18.51 16.50 19.01 22.58 22.91 22.89 24.13 24.89 25.88 30.31 32.82 34.18 33.05 25.34
24.03 24.03 24.65 25.49 26.04 26.55 27.10 26.32 25.81 24.10 26.61 21.33 16.68 16.48 14.87 14.22 17.79 21.38 19.78 19.88 20.40 22.35 21.79 27.22 29.53 30.79 32.77
23.64 24.02 24.98 24.93 25.08 25.25 27.12 26.70 25.55 26.97 28.67 23.70 21.30 19.56 22.39 18.90 13.53 16.14 19.08 20.13 18.28 14.13 18.58 20.70 20.56 21.97 20.32
23.83 24.57 24.17 22.38 23.55 26.18 24.40 24.09 23.15 23.84 24.92 20.01 16.83 17.89 16.39 17.77 16.60 16.28 16.16 14.61 15.41 16.04 18.80 20.22 22.38 23.52 23.01
22.13 22.02 24.69 25.15 24.69 24.59 21.64 18.98 19.14 17.55 18.41 21.69 24.10 21.98 20.67 18.12 13.92 19.12 19.97 16.48 17.27 18.58 17.31 15.23 20.04 22.04 23.57
23.13 23.43 23.73 22.85 21.51 19.39 17.45 18.05 17.85 16.64 15.61 16.65 16.59 18.09 18.81 22.53 25.59 19.93 19.99 20.65 15.10 17.01 18.24 18.22 18.72 20.70 24.34
22.84 22.13 21.72 22.82 24.48 20.62 18.63 18.48 17.07 13.77 11.73 9.79 8.43 11.02 11.04 14.77 21.15 28.64 22.12 12.61 13.49 16.52 18.95 18.51 19.08 22.21 23.61

GFSFLT2_sfc_wetblb_093.txt.gz
Wetbulb
42.53 42.75 42.94 43.39 42.58 41.88 40.09 39.83 42.11 44.84 45.35 45.66 45.72 45.85 45.17 44.34 45.10 46.49 48.04 49.83 51.82 53.49 57.60 59.18 59.76 60.42 61.57
41.15 40.68 40.73 41.76 41.23 39.43 37.19 35.71 37.97 42.63 43.34 43.39 43.53 43.23 42.27 42.40 42.65 44.02 45.80 47.92 48.97 50.53 52.94 57.04 60.41 60.83 60.79
40.89 40.88 39.98 39.08 37.05 36.06 34.84 34.15 34.70 36.51 38.17 39.74 42.25 41.26 40.84 41.00 41.25 41.53 43.34 45.66 47.39 48.14 49.04 50.78 53.64 58.10 59.22
40.47 39.06 38.30 36.15 35.72 34.31 32.32 33.00 33.91 33.25 33.87 35.51 36.90 37.89 39.31 39.86 40.25 39.88 41.20 43.36 45.29 46.61 47.13 47.46 48.52 50.90 53.22
38.26 36.57 35.02 33.43 33.46 32.81 34.51 33.37 32.53 32.08 32.38 32.62 33.83 34.57 35.81 37.86 38.93 39.42 39.96 41.19 42.79 43.92 44.89 45.58 46.12 47.00 48.39
36.21 35.37 33.99 33.00 33.77 33.68 32.43 31.01 31.06 31.77 31.22 31.37 32.96 32.49 33.66 36.61 38.81 38.98 40.03 39.77 40.49 41.37 42.03 42.73 43.23 44.04 44.95
36.63 35.42 34.94 34.81 33.16 31.12 29.92 30.02 29.70 30.71 30.90 29.05 31.48 31.18 32.16 34.14 37.87 38.15 38.70 39.57 40.37 40.58 40.70 40.48 40.74 41.26 41.87
33.90 34.14 33.93 33.29 33.50 32.98 31.52 29.94 29.27 29.78 30.32 28.86 29.66 29.62 31.27 33.48 36.32 37.06 37.80 38.52 38.86 39.18 39.51 39.54 40.08 40.66 40.94
35.74 35.47 34.99 34.44 33.08 31.83 30.02 29.95 28.42 28.57 29.91 29.58 28.53 28.41 29.78 31.56 31.90 35.72 35.44 35.26 35.97 36.49 36.91 37.20 37.07 36.52 38.28
30.75 31.89 33.04 34.71 33.31 31.24 31.24 29.39 28.64 27.76 29.27 28.80 27.52 27.70 28.47 29.71 30.34 31.11 31.53 32.16 33.37 33.40 34.26 35.36 35.55 35.36 35.93
29.22 29.11 30.59 30.45 30.32 30.40 30.22 30.54 28.69 28.82 30.33 28.60 26.80 26.72 26.76 27.24 28.06 29.29 29.51 29.68 30.14 30.07 32.35 33.06 33.16 33.98 34.27
27.23 27.01 27.73 29.09 29.88 30.23 29.68 29.73 30.14 29.85 31.76 29.19 27.88 27.43 27.00 26.37 26.17 27.31 28.00 28.09 28.87 28.93 29.33 29.57 29.99 30.49 31.70
27.09 27.74 28.67 30.17 30.24 29.60 28.98 28.49 28.44 30.21 30.01 28.25 28.91 26.80 27.15 25.96 25.62 26.00 26.86 27.76 27.97 27.39 27.57 28.18 28.34 28.88 29.14
28.02 28.41 28.32 27.88 28.12 28.88 28.25 27.89 27.60 27.84 28.96 28.16 27.93 27.79 26.59 26.40 26.22 25.35 26.31 25.00 26.80 26.86 27.09 27.56 28.18 28.71 28.54
27.57 26.93 26.95 27.75 27.61 28.17 27.80 26.24 26.41 25.75 25.99 27.17 28.02 27.55 27.63 26.77 25.03 25.82 25.78 25.18 26.60 26.25 25.39 25.75 27.35 28.17 28.50
27.32 26.76 26.93 27.10 27.48 27.45 26.68 26.72 25.94 25.04 25.35 26.04 26.36 26.12 26.14 27.16 28.25 26.20 25.98 25.64 26.48 25.85 25.31 24.09 25.31 28.13 28.40
27.71 27.02 26.51 26.52 27.92 26.58 25.97 25.87 25.26 25.58 25.37 24.27 23.84 24.40 22.42 21.20 26.85 29.66 26.05 26.04 25.56 25.50 26.02 25.36 24.84 26.99 27.81

GFSFLT2_sfc_wetblb_096.txt.gz
Wetbulb
45.85 44.86 44.92 44.60 43.19 42.33 41.48 40.96 43.11 45.03 45.31 45.35 45.52 45.00 44.23 44.10 44.42 45.86 47.06 48.71 50.59 52.77 54.77 59.39 59.50 60.22 60.80
43.46 42.21 42.45 43.21 42.37 38.94 37.11 37.69 41.43 43.00 43.11 43.65 43.51 42.52 42.12 42.30 42.48 43.27 45.11 46.91 48.87 50.36 51.60 56.00 59.67 60.45 60.32
44.01 43.11 41.63 40.52 38.77 37.93 35.57 35.05 35.67 36.96 38.40 40.95 42.30 41.00 40.81 40.98 41.29 41.51 42.99 45.29 47.01 48.28 49.02 51.05 54.15 59.22 60.12
43.25 41.01 39.99 37.94 37.46 35.35 33.66 33.99 34.07 35.32 35.59 36.78 37.32 37.58 39.03 40.10 40.22 40.03 41.44 43.31 45.01 46.36 47.27 47.99 49.46 52.08 55.86
40.01 38.58 36.75 34.68 34.80 35.17 35.08 34.57 36.52 36.94 35.39 35.45 36.07 36.56 37.67 39.08 39.98 40.25 40.40 41.60 42.79 43.99 45.00 45.85 46.85 48.08 49.70
39.08 37.23 36.84 35.95 34.01 34.05 37.50 35.92 34.66 35.29 33.18 33.04 34.67 34.34 36.14 38.41 38.81 39.69 40.49 40.58 41.36 41.92 42.38 43.18 43.95 45.22 46.02
38.18 37.55 36.29 35.82 37.54 37.03 36.26 35.03 33.93 33.27 33.06 32.04 33.65 32.86 35.72 37.75 37.97 38.49 39.21 39.94 40.20 40.68 41.45 41.83 41.90 42.15 42.80
37.84 40.50 40.23 39.66 38.97 38.13 36.30 34.20 33.07 32.83 33.12 31.45 32.25 31.74 34.16 36.46 36.74 37.79 38.46 38.74 38.79 39.10 39.34 39.48 40.38 41.49 41.39
36.02 35.54 35.59 35.44 36.03 34.86 32.43 31.71 31.04 31.13 32.65 32.46 31.36 31.14 32.39 33.48 34.30 36.03 35.85 36.02 36.47 37.31 37.31 37.55 37.03 37.53 39.79
35.47 35.65 36.34 35.72 33.50 34.62 34.45 33.38 32.09 30.45 32.39 31.87 30.43 30.68 30.77 32.30 33.03 33.87 34.20 32.50 33.69 34.02 35.25 36.15 36.04 37.05 37.82
32.42 33.12 34.20 34.05 33.14 33.31 33.31 34.29 32.76 32.12 32.28 32.39 30.71 30.23 30.10 30.32 30.88 31.84 31.96 32.43 32.31 32.29 33.85 33.45 33.58 34.51 35.70
31.41 31.04 31.30 31.78 32.10 32.68 32.17 32.49 32.76 32.87 33.14 32.48 31.16 31.00 30.01 29.83 29.48 30.25 31.17 31.64 31.33 31.22 31.49 31.70 31.16 31.08 32.08
30.44 31.01 31.88 33.48 33.01 31.85 31.64 31.23 31.57 32.52 32.09 31.18 32.04 30.19 30.19 29.26 29.09 29.39 29.33 30.68 31.03 30.17 30.50 30.61 31.04 31.26 30.66
31.70 32.11 31.87 31.10 31.24 32.42 31.20 31.08 31.04 30.48 31.16 30.82 30.88 30.23 29.61 29.49 29.05 28.61 29.60 28.61 29.75 30.06 30.09 30.05 30.48 30.60 30.33
31.28 30.49 29.79 30.20 30.22 31.61 31.52 30.97 29.99 29.61 29.39 29.81 30.25 30.38 30.26 29.27 28.16 29.31 29.17 29.25 30.22 29.96 28.18 28.16 29.99 30.61 30.71
30.90 30.86 30.14 29.79 30.20 30.27 31.03 30.04 29.46 29.76 29.26 30.02 29.38 28.56 28.60 29.76 30.70 28.80 29.57 29.22 30.44 29.61 28.44 27.33 28.76 31.50 31.00
31.88 31.16 30.94 30.60 29.96 29.52 29.17 29.15 28.96 29.67 29.48 29.66 28.62 27.57 26.04 24.92 29.29 30.75 29.04 29.63 29.03 28.12 28.78 28.56 28.19 30.02 31.19

GFSFLT2_sfc_wetblb_102.txt.gz
Wetbulb
43.33 43.81 45.18 42.70 42.32 41.99 41.61 41.85 43.76 45.98 45.82 45.52 44.88 44.23 43.64 43.30 43.35 43.52 45.05 46.89 48.29 50.13 52.43 53.37 55.85 59.40 60.44
44.04 41.86 42.67 43.71 41.82 39.12 38.04 38.94 42.06 43.77 44.01 43.84 43.40 42.69 42.16 42.08 42.23 42.31 42.97 45.34 46.64 48.31 50.71 51.63 54.83 59.38 59.32
42.61 42.84 42.03 40.95 39.22 38.15 35.99 35.50 36.95 39.64 39.74 41.28 42.11 41.16 40.68 41.31 42.09 41.99 42.14 44.06 45.49 46.99 48.59 49.58 52.19 58.72 59.56
40.96 41.57 40.53 39.39 38.69 36.43 34.72 34.85 34.14 35.50 37.14 37.71 37.75 37.25 38.95 40.44 40.70 41.43 41.52 43.25 44.56 45.71 47.19 47.77 48.84 53.30 56.55
39.04 39.54 37.26 35.36 35.56 36.46 35.48 34.43 34.24 34.95 33.68 30.69 30.25 30.62 33.08 38.01 39.00 40.32 41.85 42.45 43.42 44.66 45.26 46.12 47.20 49.47 52.14
37.82 37.25 36.78 36.01 36.22 34.50 34.36 32.62 32.34 31.07 28.36 27.72 28.70 28.24 31.19 33.58 39.13 40.03 40.17 40.98 41.85 42.42 44.06 44.23 44.99 46.87 48.84
37.60 37.54 35.22 36.44 34.95 33.51 33.95 34.15 31.24 28.13 27.56 25.52 27.47 26.99 30.60 35.17 38.61 39.25 39.51 39.53 40.00 40.18 41.21 43.22 43.61 45.24 46.65
34.48 35.79 36.94 37.99 36.94 36.27 34.95 29.10 27.36 27.23 27.28 22.76 25.72 26.08 29.15 30.78 37.67 37.70 38.03 38.42 38.68 39.07 39.35 39.76 41.78 43.22 44.66
36.87 38.35 39.56 41.14 36.42 31.65 26.94 25.57 24.08 25.67 26.98 26.49 25.10 25.17 26.40 28.23 30.90 36.61 36.08 36.83 36.39 37.75 38.53 38.73 39.32 40.24 40.86
30.79 32.67 34.16 35.09 36.99 30.43 27.85 24.54 22.33 22.01 26.81 24.45 23.34 23.72 20.94 27.23 28.08 29.14 29.57 33.67 34.01 35.82 36.65 37.06 37.81 34.40 33.85
28.58 28.51 28.45 27.29 26.54 27.88 29.67 29.79 20.81 20.18 28.35 25.48 17.69 21.48 22.38 23.11 25.07 26.83 28.19 28.80 28.09 29.26 34.53 34.90 35.01 34.44 31.87
26.05 26.11 26.13 24.68 24.73 26.05 28.23 27.44 27.57 25.73 27.92 27.77 17.64 19.93 15.40 18.54 22.44 24.52 24.53 25.79 26.45 26.94 26.66 31.25 33.13 33.51 33.48
25.36 24.55 24.38 24.91 25.09 24.22 25.36 26.63 24.00 26.59 27.56 21.54 17.09 15.23 15.57 14.66 18.81 22.10 21.53 24.14 24.09 22.08 24.36 25.15 25.27 25.98 24.34
24.85 25.80 27.35 26.96 22.15 21.53 18.53 20.37 20.92 25.88 27.54 19.62 16.84 17.00 15.68 17.40 17.90 18.10 19.72 18.54 20.49 21.26 23.22 24.49 26.57 27.19 26.67
25.37 26.35 26.70 26.37 25.58 22.18 21.67 23.28 21.79 22.98 25.57 24.53 25.74 23.43 19.93 17.49 16.12 19.05 20.71 20.35 20.08 20.74 21.70 20.02 23.68 25.24 27.04
26.90 27.61 26.04 25.72 24.89 23.49 23.38 22.48 24.52 24.62 23.23 21.05 18.88 18.67 19.97 24.03 26.62 18.69 19.34 20.09 20.31 22.69 22.35 15.28 18.28 24.73 27.71
27.91 27.18 25.64 25.84 28.01 26.72 25.47 24.60 24.80 25.49 24.75 23.87 19.45 15.48 12.34 14.62 23.19 30.62 18.00 18.78 19.98 21.20 21.68 20.58 16.86 22.90 27.92

GFSFLT2_sfc_wetblb_108.txt.gz
Wetbulb
43.41 43.20 42.30 42.03 41.89 40.88 41.42 41.57 43.86 47.01 46.92 46.39 45.07 43.92 43.50 43.28 43.36 44.04 44.15 44.27 45.97 47.14 48.99 50.81 53.43 53.83 55.69
41.68 42.16 42.52 41.49 42.10 40.54 39.52 39.55 41.87 45.12 45.27 44.83 44.44 42.99 42.31 42.14 42.41 42.77 43.02 43.69 44.90 45.67 47.52 49.81 52.11 53.71 58.73
40.71 42.05 42.05 41.83 40.04 39.14 37.29 36.59 38.87 42.21 43.33 42.54 43.81 41.88 40.39 40.86 41.68 41.70 42.71 43.15 43.98 45.18 46.36 48.45 50.14 52.36 56.81
39.90 41.21 39.97 40.21 39.71 38.32 36.31 35.71 35.52 36.50 39.50 38.78 39.74 38.43 39.21 40.64 40.17 40.56 41.38 42.02 42.85 43.40 45.81 47.15 48.51 50.88 53.72
37.74 40.54 38.49 36.57 37.32 37.27 37.14 36.50 35.16 35.48 33.68 33.75 32.69 31.55 31.68 36.00 38.04 40.13 40.76 40.97 41.29 41.76 44.45 46.36 47.87 49.24 51.40
36.30 37.55 38.15 36.86 37.35 35.77 34.22 33.87 33.78 33.75 32.34 30.81 28.11 27.90 29.19 31.43 38.61 39.41 39.17 39.73 40.43 40.87 41.96 45.07 46.56 47.60 49.10
36.96 37.70 37.05 38.71 37.22 34.77 34.68 34.08 34.04 31.10 29.57 26.58 26.60 26.41 29.06 33.38 38.32 38.41 38.02 38.62 38.92 39.88 40.96 43.05 45.06 46.42 47.14
39.16 38.59 39.57 39.90 39.07 37.84 35.75 33.45 29.81 30.01 27.84 24.53 25.18 25.62 27.20 29.52 37.11 37.17 37.70 37.55 38.45 39.05 39.94 40.78 42.23 43.19 45.82
39.47 40.87 42.31 42.41 39.26 34.75 32.33 31.82 29.14 26.55 26.59 25.98 24.03 24.12 25.58 27.36 29.52 37.08 35.88 35.66 36.41 38.20 38.82 39.55 39.25 39.63 39.27
33.19 35.32 38.53 39.42 41.90 35.90 32.52 32.04 24.34 24.17 26.64 25.03 22.42 22.81 19.41 25.41 26.78 27.64 28.35 33.42 35.03 36.82 37.19 37.58 38.10 31.57 33.11
29.12 29.27 29.66 31.01 32.30 30.65 31.17 30.79 25.05 22.24 27.46 23.74 14.44 19.65 18.43 21.01 23.53 24.21 26.40 27.22 26.92 28.13 32.79 35.46 36.52 34.82 29.00
28.24 27.78 27.38 26.71 26.10 27.53 28.92 28.50 27.46 27.07 29.50 22.12 19.11 17.70 13.51 15.01 20.89 22.92 21.48 22.33 23.43 26.04 26.11 30.19 32.88 34.58 36.54
28.50 28.17 27.46 26.38 26.67 27.02 27.06 26.49 25.49 29.07 29.05 23.83 18.71 9.88 13.24 13.17 17.84 19.24 21.85 24.80 23.73 21.81 23.98 24.07 23.79 24.52 23.89
29.79 29.21 27.67 26.78 26.93 26.14 25.58 23.19 24.72 25.46 26.00 23.56 14.28 17.54 14.47 16.85 17.11 18.46 21.40 20.69 23.11 22.98 24.42 23.27 25.77 26.48 25.91
29.19 27.70 28.07 27.75 27.24 24.17 22.58 20.18 17.11 20.80 21.46 24.51 25.15 23.56 20.57 20.42 18.28 21.75 23.10 22.06 21.01 20.78 21.06 19.68 23.49 24.18 26.09
29.60 28.62 27.80 27.24 25.86 22.17 21.91 20.45 17.77 20.60 20.00 20.76 19.07 19.08 20.84 24.65 27.40 23.19 22.14 21.56 18.91 20.77 20.65 14.23 16.88 23.17 26.11
29.64 28.82 28.34 27.09 27.34 25.18 23.42 21.56 21.37 21.10 20.46 16.90 15.17 14.51 15.89 19.26 25.44 30.27 23.26 20.41 18.98 20.34 20.57 19.41 15.97 21.69 26.97

GFSFLT2_sfc_wetblb_111.txt.gz
Wetbulb
44.51 44.31 44.23 43.28 43.16 42.25 43.10 42.51 43.28 47.87 48.44 47.20 45.91 44.42 43.65 43.38 43.40 43.94 44.54 44.69 45.49 46.67 47.46 49.13 51.11 52.84 54.60
43.13 42.80 43.29 42.61 40.54 39.17 39.92 40.74 41.14 45.61 46.91 46.17 45.54 43.96 42.69 42.06 42.36 42.69 43.09 43.86 44.21 45.32 46.39 48.08 50.32 52.32 54.21
41.98 42.64 42.66 42.69 40.79 39.49 36.97 36.35 39.59 43.66 45.41 44.33 44.64 43.71 41.14 40.77 41.63 41.28 41.96 42.40 43.05 43.45 44.52 46.97 49.28 50.96 53.14
41.73 41.61 41.44 40.98 40.59 38.71 36.94 35.37 35.38 37.32 41.47 39.90 41.19 40.94 39.13 40.56 39.84 40.32 40.73 41.59 41.84 42.35 43.25 45.99 47.74 49.26 51.28
40.65 40.65 39.01 37.39 38.09 38.54 37.37 36.24 36.32 36.34 33.89 34.55 32.83 32.35 33.19 35.63 37.28 39.71 40.28 40.46 40.79 41.31 42.37 45.16 47.30 48.22 49.43
40.31 40.65 40.57 38.73 37.40 35.50 35.82 34.66 34.26 34.62 32.70 30.79 29.90 29.13 29.91 30.58 37.65 39.04 38.71 39.34 39.73 40.33 41.25 43.78 45.55 47.16 48.22
42.34 41.55 39.85 39.67 37.13 34.20 34.79 34.98 35.11 31.23 30.63 29.09 27.98 27.74 28.99 32.81 38.11 38.40 37.77 38.16 38.94 39.63 40.30 41.82 43.57 44.95 46.63
43.46 41.54 41.87 40.24 39.82 37.92 36.96 34.29 30.77 30.31 29.62 27.01 26.42 26.67 27.36 29.80 36.63 37.78 37.23 37.05 37.67 38.95 39.82 40.25 40.68 42.31 44.37
42.29 42.46 43.06 43.23 40.38 36.79 33.45 33.04 30.31 29.28 27.93 27.41 25.13 24.96 25.73 27.29 29.85 37.17 36.30 35.41 36.23 37.75 38.56 39.16 38.47 38.82 38.73
35.28 37.61 40.44 40.56 42.33 38.36 35.48 34.13 30.86 29.23 28.31 26.24 23.58 24.33 20.61 25.32 27.16 28.36 28.98 33.38 34.58 35.48 36.38 37.85 37.96 29.90 30.68
30.80 30.17 30.99 34.13 35.89 32.50 33.20 35.25 31.42 31.56 28.32 24.22 17.02 21.33 20.19 23.27 24.88 25.35 26.51 27.02 26.69 27.74 32.52 35.17 37.16 34.74 28.43
29.87 29.74 29.89 29.51 30.40 30.09 29.96 30.42 30.80 31.82 30.85 24.68 20.99 21.77 20.23 18.69 22.04 24.25 21.60 22.00 22.88 25.26 24.95 29.92 32.80 35.87 37.58
29.45 29.70 29.75 29.71 26.41 26.33 27.00 28.45 28.54 29.83 28.28 23.03 23.10 17.73 19.09 16.90 20.42 20.90 20.14 21.84 21.50 19.31 22.91 24.91 25.56 26.20 24.95
31.54 30.65 28.43 27.41 27.52 27.63 26.66 26.25 25.71 25.85 27.22 25.86 21.68 22.72 16.92 17.89 19.11 17.89 17.90 18.00 19.19 20.30 22.98 24.27 26.51 27.02 26.04
30.38 28.74 28.54 27.82 27.54 26.38 24.39 23.66 24.31 24.03 23.93 25.75 25.87 24.80 22.03 21.64 18.00 18.60 19.33 20.44 20.38 21.72 22.43 20.48 23.18 25.68 26.54
30.41 29.70 28.51 27.75 26.81 25.56 24.83 24.79 23.21 21.90 22.11 24.17 23.86 22.04 22.26 24.66 26.00 20.72 18.74 21.34 22.84 24.46 23.42 18.17 17.89 23.64 25.56
30.53 29.65 29.14 28.61 28.51 25.63 24.73 24.11 23.02 21.59 18.46 20.43 19.11 18.36 16.87 18.86 24.13 28.94 18.26 21.14 22.81 24.12 24.37 22.82 18.84 22.41 26.79